Voltar ao catálogo

DELTA 1 DEB

AtivoSSO
NORAD 21374·DEBRIS·🇺🇸 United States

Lançado Jun 12, 1975 de Vandenberg Space Force Base

Loading…

Próximas Passagens (próximas 24 horas)

TLE

AtualizadoSource: Space-Track

Época: Sep 14, 2026, 01:08 UTC

1 21374U 75052CU  26257.04754170  .00000471  00000-0  53408-3 0  9991
2 21374  99.8663 103.2633 0257309  64.9688  85.6807 13.62220439745872

Acompanhe DELTA 1 DEB em tempo real com AllMySat

Download on the App Store